Regional Weather Roundup
Issued by NWS

Home | Current Version | Previous Version | Graphics & Text | Print | Product List | Glossary On
Versions: 1 2 3 4 5 6 7 8 9 10 11 12 13 14 15 16 17 18 19 20 21 22 23 24 25 26 27 28 29 30 31 32 33 34 35 36 37 38 39 40 41 42 43 44 45 46 47 48 49 50
000
ASUS44 KMEG 242110
RWRTN
TENNESSEE HOURLY STATE WEATHER ROUNDUP
NATIONAL WEATHER SERVICE MEMPHIS TN
400 PM CDT THU JUL 24 2014

TNZ002-004-019-021-049-052-054-088>092-242200-
WEST TENNESSEE

CITY           SKY/WX    TMP DP  RH WIND       PRES   REMARKS
MEMPHIS INTL   SUNNY     83  57  41 N13       30.04R
NWS MEMPHIS      N/A     81 N/A N/A MISG        N/A
JACKSON        SUNNY     82  59  45 N9        30.02F
DYERSBURG      MOSUNNY   81  57  44 N14       30.04F
UNION CITY     SUNNY     77  61  57 N6        30.03S
PARIS          MOSUNNY   78  60  53 N8        30.03F
LEXINGTON      MOSUNNY   79  63  57 NW7       30.01R
$$

TNZ008-025-027-028-033-062-065-066-242200-
NORTH MIDDLE TENNESSEE

CITY           SKY/WX    TMP DP  RH WIND       PRES   REMARKS
NASHVILLE      MOSUNNY   85  62  46 VRB6      29.99F
DICKSON        MOSUNNY   79  61  53 N7        30.01F
PORTLAND       MOSUNNY   82  63  51 NW10      29.99F
CLARKSVILLE    MOSUNNY   83  58  42 N6        30.01F
LEBANON        PTSUNNY   80  64  58 CALM      29.98S
SMYRNA         MOSUNNY   88  65  46 N10       29.99F HX  90
COOKEVILLE     MOSUNNY   81  70  69 N3        29.99F
GALLATIN       SUNNY     85  62  45 NW8       29.99F
CROSSVILLE     PTSUNNY   76  65  68 NW10G20   30.03R
$$

TNZ061-075-076-078-094-096-097-242200-
SOUTH MIDDLE TENNESSEE

CITY           SKY/WX    TMP DP  RH WIND       PRES   REMARKS
LEWISBURG      MOSUNNY   84  64  50 VRB7      29.98S
FAYETTEVILLE   MOSUNNY   82  66  57 NW10      29.98S
TULLAHOMA      MOSUNNY   81  66  61 NW14      30.00S
WINCHESTER     MOSUNNY   82  68  61 NW6       29.98S
MCMINNVILLE    MOSUNNY   81  72  74 N10       30.00R
COLUMBIA       MOSUNNY   84  64  51 VRB7      29.98F
SHELBYVILLE    MOSUNNY   81  70  69 N10       30.00S
$$

TNZ017-018-042-046-047-242200-
NORTHEAST TENNESSEE

CITY           SKY/WX    TMP DP  RH WIND       PRES   REMARKS
TRI CITIES     PTSUNNY   79  69  71 VRB5      29.96R
ELIZABETHTON   PTCLDY    72  64  78 SW6       29.97R
$$

TNZ012-013-036-069-073-074-242200-
CENTRAL EAST TENNESSEE

CITY           SKY/WX    TMP DP  RH WIND       PRES   REMARKS
KNOXVILLE      MOSUNNY   85  67  54 W10       29.93S
OAK RIDGE      PTSUNNY   83  67  58 N6        29.95R
GATLINBURG     PTCLDY    84  68  58 W9        29.92S
MORRISTOWN     CLEAR     81  66  61 N7        29.97R
$$

TNZ083-085-099-242200-
SOUTHEAST TENNESSEE

CITY           SKY/WX    TMP DP  RH WIND       PRES   REMARKS
CHATTANOOGA    PTSUNNY   87  67  51 W13       29.94S HX  90
$$

SKY/WX REPORTED AS FAIR MEANS FEW OR NO CLOUDS BELOW
12 THOUSAND FEET.



USA.gov is the U.S. government's official web portal to all federal, state and local government web resources and services.